GFSWCAN_prec_precacc_021.txt.gz
Total_Precipitation_Accumulation
0.00 0.01 0.01 0.02 0.02 0.03 0.03 0.03 0.03 0.04 0.03 0.02 0.02 0.01 0.01 0.01 0.01 0.02 0.05 0.09 0.22 0.12 0.02 0.00 0.00 0.01 0.01 0.02 0.03 0.01 0.01 0.01 0.05 0.09 0.10 0.05 0.02 0.01 0.00 0.00 0.00 0.01 0.02 0.03 0.04 0.04 0.00 0.00 0.00 0.00 0.00 0.00 0.00 0.00
0.01 0.02 0.04 0.03 0.03 0.03 0.04 0.04 0.02 0.03 0.02 0.02 0.01 0.02 0.01 0.01 0.01 0.03 0.03 0.08 0.15 0.14 0.04 0.00 0.00 0.00 0.00 0.01 0.01 0.00 0.03 0.01 0.03 0.10 0.14 0.09 0.03 0.01 0.00 0.00 0.00 0.00 0.00 0.00 0.00 0.00 0.00 0.00 0.00 0.00 0.00 0.00 0.00 0.01
0.03 0.06 0.07 0.06 0.05 0.05 0.06 0.05 0.04 0.03 0.03 0.03 0.02 0.01 0.01 0.01 0.01 0.03 0.03 0.02 0.08 0.09 0.02 0.00 0.00 0.00 0.00 0.00 0.01 0.01 0.02 0.00 0.04 0.12 0.26 0.10 0.04 0.04 0.02 0.01 0.00 0.00 0.00 0.00 0.00 0.00 0.00 0.00 0.00 0.00 0.00 0.00 0.00 0.02
0.10 0.11 0.09 0.09 0.10 0.08 0.07 0.06 0.04 0.04 0.03 0.04 0.02 0.02 0.01 0.01 0.03 0.05 0.02 0.03 0.06 0.07 0.04 0.00 0.00 0.00 0.00 0.00 0.01 0.02 0.03 0.00 0.05 0.13 0.17 0.12 0.03 0.02 0.02 0.01 0.00 0.01 0.00 0.00 0.00 0.00 0.00 0.00 0.00 0.00 0.00 0.00 0.00 0.00
0.13 0.11 0.10 0.13 0.11 0.09 0.09 0.07 0.04 0.04 0.04 0.03 0.03 0.02 0.03 0.05 0.04 0.04 0.01 0.02 0.04 0.10 0.13 0.04 0.05 0.00 0.00 0.01 0.04 0.03 0.07 0.04 0.06 0.11 0.11 0.05 0.03 0.02 0.00 0.00 0.00 0.00 0.00 0.00 0.00 0.00 0.00 0.00 0.00 0.00 0.00 0.00 0.00 0.00
0.12 0.12 0.12 0.10 0.08 0.09 0.09 0.10 0.08 0.05 0.03 0.02 0.03 0.04 0.04 0.05 0.08 0.06 0.07 0.23 0.16 0.14 0.26 0.15 0.23 0.03 0.03 0.05 0.14 0.12 0.12 0.12 0.14 0.08 0.06 0.07 0.03 0.04 0.04 0.01 0.00 0.00 0.00 0.00 0.00 0.00 0.00 0.00 0.00 0.00 0.00 0.00 0.00 0.00
0.14 0.11 0.10 0.11 0.12 0.12 0.12 0.12 0.08 0.04 0.03 0.02 0.02 0.02 0.02 0.03 0.06 0.03 0.12 0.56 0.28 0.20 0.27 0.37 0.56 0.13 0.13 0.19 0.16 0.32 0.11 0.11 0.08 0.09 0.07 0.05 0.10 0.25 0.12 0.01 0.00 0.00 0.00 0.00 0.00 0.00 0.00 0.00 0.00 0.00 0.00 0.00 0.00 0.00
0.16 0.12 0.12 0.13 0.14 0.13 0.10 0.08 0.06 0.03 0.02 0.01 0.00 0.00 0.01 0.05 0.03 0.02 0.02 0.10 0.27 0.60 0.55 0.83 0.84 0.33 0.39 0.35 0.16 0.13 0.10 0.09 0.10 0.08 0.08 0.11 0.08 0.09 0.05 0.00 0.00 0.00 0.00 0.00 0.00 0.00 0.00 0.00 0.00 0.00 0.00 0.00 0.00 0.00
0.12 0.11 0.10 0.11 0.12 0.11 0.08 0.07 0.04 0.02 0.00 0.00 0.00 0.01 0.11 0.07 0.04 0.03 0.04 0.10 0.41 0.84 0.71 0.61 0.56 0.48 0.36 0.11 0.08 0.05 0.08 0.23 0.08 0.06 0.04 0.04 0.05 0.03 0.00 0.01 0.00 0.00 0.00 0.00 0.00 0.00 0.00 0.00 0.00 0.00 0.00 0.00 0.00 0.00
0.09 0.07 0.07 0.09 0.10 0.08 0.06 0.05 0.03 0.01 0.00 0.00 0.00 0.01 0.09 0.01 0.00 0.05 0.24 0.60 0.67 0.59 0.39 0.37 0.37 0.27 0.15 0.03 0.07 0.10 0.05 0.14 0.13 0.05 0.04 0.04 0.01 0.00 0.00 0.00 0.00 0.00 0.00 0.00 0.00 0.00 0.00 0.00 0.00 0.00 0.00 0.00 0.00 0.00
0.08 0.05 0.04 0.06 0.08 0.06 0.04 0.03 0.02 0.00 0.00 0.00 0.00 0.01 0.02 0.00 0.15 0.46 0.71 0.66 0.46 0.27 0.22 0.25 0.17 0.10 0.07 0.01 0.06 0.05 0.06 0.07 0.04 0.02 0.02 0.01 0.00 0.00 0.00 0.00 0.00 0.00 0.00 0.00 0.00 0.00 0.00 0.00 0.00 0.00 0.00 0.01 0.04 0.03
0.13 0.06 0.04 0.06 0.07 0.06 0.04 0.02 0.01 0.00 0.00 0.01 0.02 0.01 0.01 0.13 0.37 0.46 0.57 0.42 0.15 0.08 0.09 0.20 0.13 0.11 0.08 0.05 0.11 0.07 0.01 0.03 0.01 0.00 0.00 0.00 0.00 0.00 0.00 0.00 0.00 0.00 0.00 0.00 0.00 0.00 0.00 0.00 0.00 0.00 0.00 0.00 0.01 0.08
0.18 0.11 0.05 0.07 0.09 0.05 0.02 0.01 0.00 0.00 0.01 0.01 0.01 0.00 0.06 0.14 0.25 0.30 0.32 0.25 0.04 0.02 0.02 0.03 0.08 0.09 0.05 0.06 0.03 0.01 0.00 0.00 0.00 0.00 0.00 0.00 0.00 0.00 0.00 0.00 0.00 0.00 0.00 0.00 0.00 0.00 0.00 0.00 0.01 0.01 0.01 0.00 0.00 0.01
0.19 0.13 0.07 0.09 0.10 0.04 0.01 0.01 0.00 0.00 0.01 0.00 0.00 0.00 0.06 0.09 0.13 0.14 0.12 0.10 0.04 0.04 0.03 0.02 0.03 0.02 0.02 0.01 0.00 0.00 0.00 0.00 0.00 0.00 0.00 0.00 0.00 0.00 0.00 0.00 0.00 0.00 0.00 0.02 0.07 0.14 0.05 0.02 0.02 0.03 0.04 0.04 0.04 0.06
0.21 0.12 0.08 0.07 0.09 0.05 0.03 0.01 0.00 0.01 0.00 0.00 0.00 0.00 0.01 0.02 0.02 0.01 0.02 0.04 0.03 0.04 0.05 0.01 0.01 0.00 0.00 0.00 0.00 0.00 0.00 0.00 0.00 0.00 0.00 0.00 0.00 0.00 0.00 0.00 0.00 0.00 0.01 0.00 0.01 0.07 0.06 0.03 0.01 0.03 0.11 0.13 0.09 0.08
0.29 0.24 0.08 0.03 0.03 0.04 0.03 0.01 0.00 0.00 0.00 0.00 0.00 0.00 0.00 0.00 0.00 0.00 0.00 0.01 0.01 0.03 0.06 0.05 0.07 0.02 0.01 0.00 0.00 0.00 0.00 0.00 0.00 0.00 0.00 0.00 0.00 0.00 0.00 0.00 0.00 0.00 0.00 0.00 0.00 0.01 0.01 0.00 0.00 0.00 0.02 0.09 0.14 0.13
0.47 0.14 0.03 0.03 0.02 0.02 0.01 0.00 0.00 0.00 0.00 0.00 0.00 0.00 0.00 0.00 0.00 0.00 0.00 0.00 0.01 0.05 0.17 0.21 0.16 0.05 0.03 0.02 0.00 0.00 0.00 0.00 0.00 0.00 0.00 0.00 0.00 0.00 0.00 0.00 0.00 0.00 0.00 0.00 0.00 0.00 0.00 0.00 0.00 0.00 0.00 0.01 0.03 0.07
0.20 0.02 0.06 0.06 0.02 0.00 0.00 0.00 0.00 0.00 0.00 0.00 0.00 0.00 0.00 0.00 0.00 0.00 0.00 0.00 0.01 0.06 0.22 0.41 0.22 0.14 0.03 0.01 0.00 0.00 0.00 0.00 0.00 0.00 0.00 0.00 0.00 0.00 0.00 0.00 0.00 0.00 0.00 0.00 0.00 0.00 0.00 0.00 0.00 0.00 0.00 0.00 0.00 0.00
0.06 0.10 0.17 0.10 0.04 0.00 0.00 0.00 0.00 0.00 0.00 0.00 0.00 0.00 0.00 0.00 0.00 0.00 0.00 0.00 0.01 0.03 0.10 0.23 0.24 0.08 0.00 0.00 0.00 0.00 0.00 0.00 0.00 0.00 0.00 0.00 0.00 0.00 0.00 0.00 0.00 0.00 0.00 0.00 0.00 0.00 0.00 0.00 0.00 0.00 0.00 0.00 0.00 0.00
0.27 0.40 0.34 0.21 0.05 0.00 0.00 0.00 0.00 0.00 0.00 0.00 0.00 0.00 0.00 0.01 0.00 0.00 0.00 0.00 0.01 0.05 0.10 0.11 0.04 0.02 0.02 0.04 0.06 0.04 0.01 0.00 0.00 0.00 0.00 0.00 0.00 0.00 0.00 0.00 0.00 0.00 0.00 0.00 0.00 0.00 0.00 0.00 0.00 0.00 0.00 0.00 0.00 0.00
0.50 0.47 0.41 0.19 0.10 0.00 0.00 0.00 0.00 0.00 0.00 0.00 0.00 0.00 0.00 0.00 0.00 0.00 0.00 0.00 0.01 0.03 0.04 0.02 0.02 0.02 0.04 0.05 0.06 0.05 0.02 0.01 0.00 0.00 0.00 0.00 0.00 0.00 0.00 0.00 0.00 0.00 0.00 0.00 0.00 0.00 0.00 0.00 0.00 0.00 0.00 0.00 0.00 0.00
0.21 0.27 0.27 0.28 0.09 0.02 0.00 0.00 0.00 0.00 0.01 0.00 0.00 0.01 0.00 0.00 0.00 0.00 0.00 0.00 0.00 0.01 0.01 0.02 0.03 0.05 0.05 0.06 0.07 0.07 0.05 0.02 0.01 0.01 0.00 0.00 0.00 0.00 0.00 0.00 0.00 0.00 0.00 0.00 0.00 0.00 0.00 0.00 0.00 0.00 0.00 0.00 0.00 0.00
0.28 0.34 0.33 0.21 0.10 0.06 0.03 0.00 0.00 0.00 0.00 0.00 0.00 0.00 0.00 0.00 0.00 0.01 0.00 0.00 0.00 0.00 0.00 0.02 0.04 0.07 0.10 0.10 0.14 0.12 0.11 0.08 0.04 0.02 0.01 0.01 0.00 0.00 0.00 0.00 0.00 0.00 0.00 0.00 0.00 0.00 0.00 0.00 0.00 0.00 0.00 0.00 0.00 0.00
0.25 0.34 0.32 0.21 0.11 0.04 0.01 0.00 0.00 0.00 0.00 0.00 0.00 0.00 0.00 0.00 0.01 0.01 0.00 0.00 0.00 0.00 0.00 0.01 0.02 0.03 0.04 0.06 0.09 0.16 0.22 0.21 0.15 0.10 0.06 0.04 0.02 0.01 0.01 0.01 0.00 0.00 0.00 0.00 0.00 0.00 0.00 0.00 0.00 0.00 0.00 0.00 0.00 0.00
0.49 0.40 0.23 0.14 0.04 0.00 0.00 0.00 0.00 0.00 0.00 0.00 0.01 0.00 0.00 0.01 0.00 0.00 0.00 0.00 0.00 0.00 0.00 0.00 0.01 0.03 0.03 0.03 0.05 0.07 0.10 0.17 0.19 0.18 0.18 0.18 0.11 0.08 0.05 0.03 0.02 0.01 0.00 0.00 0.00 0.00 0.00 0.00 0.00 0.00 0.00 0.00 0.00 0.00
0.42 0.17 0.05 0.00 0.00 0.00 0.00 0.00 0.00 0.00 0.00 0.00 0.01 0.00 0.00 0.00 0.00 0.00 0.00 0.00 0.00 0.00 0.00 0.00 0.00 0.01 0.02 0.03 0.03 0.06 0.08 0.12 0.14 0.11 0.10 0.19 0.20 0.19 0.16 0.12 0.08 0.04 0.02 0.03 0.03 0.02 0.01 0.01 0.00 0.00 0.00 0.00 0.01 0.01
0.18 0.12 0.04 0.00 0.00 0.00 0.00 0.00 0.00 0.00 0.00 0.00 0.00 0.00 0.00 0.00 0.00 0.00 0.00 0.00 0.00 0.00 0.00 0.00 0.00 0.00 0.00 0.01 0.03 0.04 0.07 0.11 0.13 0.09 0.10 0.13 0.14 0.14 0.15 0.14 0.12 0.09 0.09 0.11 0.10 0.09 0.05 0.03 0.03 0.03 0.04 0.04 0.04 0.03
0.04 0.00 0.00 0.00 0.00 0.00 0.00 0.00 0.00 0.00 0.00 0.00 0.00 0.00 0.00 0.00 0.00 0.00 0.00 0.00 0.00 0.00 0.00 0.00 0.00 0.00 0.00 0.01 0.02 0.04 0.06 0.09 0.12 0.11 0.12 0.14 0.13 0.13 0.14 0.16 0.22 0.27 0.27 0.20 0.15 0.16 0.16 0.13 0.10 0.10 0.11 0.09 0.08 0.07
0.01 0.00 0.00 0.00 0.00 0.00 0.00 0.00 0.00 0.00 0.00 0.00 0.00 0.00 0.00 0.00 0.00 0.00 0.00 0.00 0.00 0.00 0.00 0.00 0.00 0.00 0.00 0.01 0.03 0.04 0.06 0.09 0.12 0.10 0.08 0.09 0.13 0.16 0.20 0.26 0.35 0.41 0.41 0.36 0.32 0.24 0.23 0.22 0.23 0.22 0.21 0.20 0.18 0.17
0.00 0.00 0.00 0.00 0.00 0.00 0.00 0.00 0.00 0.00 0.00 0.00 0.00 0.00 0.00 0.00 0.00 0.00 0.00 0.00 0.00 0.00 0.00 0.00 0.00 0.01 0.01 0.02 0.04 0.04 0.05 0.06 0.09 0.09 0.09 0.09 0.12 0.17 0.23 0.28 0.36 0.45 0.45 0.41 0.49 0.56 0.52 0.52 0.54 0.51 0.44 0.38 0.33 0.29
0.00 0.00 0.00 0.00 0.00 0.00 0.00 0.00 0.00 0.00 0.00 0.00 0.00 0.00 0.00 0.00 0.00 0.00 0.00 0.00 0.00 0.00 0.00 0.00 0.01 0.01 0.02 0.04 0.06 0.08 0.08 0.09 0.11 0.12 0.14 0.17 0.19 0.21 0.27 0.34 0.37 0.42 0.47 0.47 0.42 0.40 0.39 0.32 0.28 0.27 0.29 0.29 0.26 0.22
0.01 0.01 0.00 0.00 0.00 0.00 0.00 0.00 0.00 0.00 0.00 0.00 0.00 0.00 0.00 0.00 0.00 0.00 0.00 0.00 0.00 0.01 0.01 0.02 0.03 0.04 0.06 0.08 0.11 0.14 0.17 0.17 0.16 0.17 0.19 0.20 0.22 0.24 0.29 0.35 0.41 0.44 0.46 0.45 0.41 0.38 0.33 0.34 0.36 0.35 0.37 0.37 0.35 0.29
0.02 0.01 0.00 0.00 0.00 0.00 0.00 0.00 0.00 0.00 0.00 0.00 0.00 0.00 0.00 0.00 0.00 0.00 0.00 0.00 0.01 0.02 0.03 0.05 0.07 0.10 0.13 0.15 0.18 0.21 0.24 0.27 0.29 0.31 0.35 0.34 0.31 0.33 0.39 0.41 0.41 0.40 0.38 0.39 0.43 0.45 0.45 0.41 0.39 0.37 0.35 0.33 0.32 0.30

GFSWCAN_prec_precacc_027.txt.gz
Total_Precipitation_Accumulation
0.00 0.01 0.01 0.02 0.02 0.05 0.05 0.04 0.06 0.06 0.04 0.04 0.05 0.06 0.06 0.01 0.01 0.02 0.05 0.09 0.22 0.12 0.02 0.00 0.00 0.01 0.01 0.02 0.03 0.01 0.01 0.01 0.05 0.09 0.10 0.05 0.02 0.01 0.00 0.00 0.00 0.01 0.02 0.04 0.04 0.05 0.00 0.00 0.00 0.00 0.00 0.00 0.00 0.00
0.01 0.02 0.04 0.04 0.06 0.08 0.06 0.06 0.04 0.04 0.04 0.04 0.04 0.07 0.12 0.02 0.01 0.03 0.03 0.08 0.15 0.14 0.04 0.00 0.00 0.00 0.00 0.01 0.01 0.00 0.03 0.01 0.03 0.10 0.14 0.09 0.03 0.01 0.00 0.00 0.00 0.00 0.00 0.00 0.00 0.00 0.00 0.00 0.00 0.00 0.00 0.00 0.00 0.01
0.05 0.06 0.08 0.10 0.12 0.09 0.07 0.06 0.06 0.06 0.06 0.04 0.04 0.08 0.12 0.08 0.03 0.04 0.03 0.03 0.09 0.11 0.02 0.00 0.00 0.00 0.00 0.00 0.01 0.01 0.02 0.01 0.04 0.12 0.26 0.10 0.04 0.04 0.02 0.01 0.00 0.00 0.00 0.00 0.00 0.00 0.00 0.00 0.00 0.00 0.00 0.00 0.00 0.02
0.12 0.14 0.15 0.16 0.16 0.11 0.10 0.10 0.08 0.09 0.08 0.06 0.06 0.07 0.08 0.09 0.05 0.06 0.03 0.03 0.08 0.09 0.08 0.00 0.00 0.00 0.00 0.00 0.01 0.02 0.04 0.02 0.07 0.14 0.17 0.12 0.03 0.02 0.02 0.01 0.00 0.01 0.00 0.00 0.00 0.00 0.00 0.00 0.00 0.00 0.00 0.00 0.00 0.00
0.14 0.13 0.14 0.19 0.17 0.12 0.11 0.09 0.09 0.11 0.11 0.08 0.07 0.06 0.09 0.09 0.06 0.05 0.01 0.02 0.05 0.13 0.17 0.05 0.05 0.00 0.00 0.01 0.04 0.04 0.08 0.15 0.14 0.15 0.13 0.05 0.03 0.02 0.00 0.00 0.00 0.00 0.00 0.00 0.00 0.00 0.00 0.00 0.00 0.00 0.00 0.00 0.00 0.00
0.13 0.13 0.15 0.15 0.13 0.14 0.14 0.15 0.15 0.14 0.13 0.10 0.07 0.09 0.08 0.06 0.10 0.06 0.07 0.23 0.16 0.15 0.34 0.18 0.23 0.03 0.03 0.05 0.14 0.15 0.17 0.30 0.39 0.23 0.10 0.07 0.03 0.04 0.04 0.02 0.00 0.00 0.00 0.00 0.00 0.00 0.00 0.00 0.00 0.00 0.00 0.00 0.00 0.00
0.15 0.14 0.14 0.17 0.21 0.23 0.20 0.18 0.16 0.15 0.15 0.08 0.08 0.05 0.02 0.03 0.06 0.04 0.13 0.56 0.28 0.20 0.32 0.39 0.57 0.15 0.13 0.21 0.20 0.41 0.29 0.47 0.48 0.35 0.14 0.05 0.10 0.25 0.13 0.01 0.00 0.00 0.00 0.00 0.00 0.00 0.00 0.00 0.00 0.00 0.00 0.00 0.00 0.00
0.23 0.20 0.21 0.25 0.27 0.25 0.18 0.14 0.14 0.14 0.10 0.06 0.03 0.00 0.01 0.05 0.03 0.03 0.02 0.10 0.27 0.61 0.58 0.88 0.87 0.44 0.48 0.52 0.43 0.54 0.56 0.65 0.68 0.46 0.16 0.12 0.08 0.10 0.05 0.00 0.00 0.00 0.00 0.00 0.00 0.00 0.00 0.00 0.00 0.00 0.00 0.00 0.00 0.00
0.20 0.18 0.15 0.16 0.20 0.20 0.16 0.14 0.12 0.11 0.07 0.02 0.00 0.01 0.12 0.07 0.04 0.03 0.05 0.11 0.42 0.87 0.76 0.68 0.64 0.59 0.64 0.54 0.54 0.51 0.80 0.68 0.57 0.33 0.10 0.04 0.05 0.03 0.00 0.01 0.00 0.00 0.00 0.00 0.00 0.00 0.00 0.00 0.00 0.00 0.00 0.00 0.00 0.00
0.19 0.13 0.09 0.13 0.17 0.16 0.15 0.11 0.11 0.08 0.02 0.00 0.00 0.02 0.09 0.01 0.00 0.06 0.26 0.63 0.74 0.66 0.45 0.47 0.53 0.58 0.75 0.49 0.39 0.41 0.44 0.36 0.47 0.15 0.05 0.04 0.01 0.00 0.00 0.00 0.00 0.00 0.00 0.00 0.00 0.00 0.00 0.00 0.00 0.00 0.00 0.00 0.00 0.00
0.14 0.08 0.04 0.08 0.14 0.13 0.09 0.08 0.08 0.02 0.00 0.00 0.00 0.01 0.02 0.00 0.15 0.47 0.73 0.69 0.49 0.30 0.26 0.34 0.42 0.34 0.24 0.16 0.13 0.16 0.13 0.13 0.11 0.06 0.05 0.02 0.00 0.00 0.00 0.00 0.00 0.00 0.00 0.00 0.00 0.00 0.00 0.00 0.00 0.00 0.00 0.01 0.04 0.03
0.15 0.07 0.05 0.07 0.10 0.11 0.08 0.06 0.03 0.00 0.00 0.01 0.02 0.01 0.02 0.13 0.38 0.48 0.58 0.43 0.16 0.09 0.14 0.31 0.31 0.25 0.16 0.06 0.13 0.12 0.05 0.05 0.02 0.00 0.01 0.00 0.00 0.00 0.00 0.00 0.00 0.00 0.00 0.00 0.00 0.00 0.00 0.00 0.00 0.00 0.00 0.00 0.01 0.08
0.18 0.12 0.08 0.08 0.10 0.07 0.04 0.02 0.01 0.00 0.01 0.01 0.01 0.01 0.06 0.14 0.26 0.31 0.33 0.26 0.06 0.05 0.07 0.10 0.19 0.19 0.17 0.11 0.08 0.08 0.00 0.00 0.00 0.00 0.00 0.00 0.00 0.00 0.00 0.00 0.00 0.00 0.00 0.00 0.00 0.01 0.01 0.01 0.01 0.02 0.01 0.00 0.00 0.01
0.21 0.15 0.13 0.14 0.12 0.07 0.05 0.02 0.01 0.00 0.01 0.00 0.00 0.00 0.06 0.09 0.14 0.14 0.12 0.11 0.05 0.04 0.03 0.04 0.09 0.11 0.17 0.10 0.06 0.01 0.00 0.00 0.00 0.00 0.00 0.00 0.00 0.00 0.00 0.00 0.00 0.00 0.00 0.02 0.07 0.16 0.18 0.20 0.17 0.13 0.12 0.11 0.07 0.06
0.23 0.15 0.13 0.13 0.12 0.08 0.07 0.04 0.01 0.01 0.00 0.00 0.00 0.00 0.01 0.02 0.02 0.01 0.02 0.04 0.03 0.04 0.05 0.02 0.04 0.02 0.08 0.07 0.03 0.02 0.01 0.00 0.00 0.00 0.00 0.00 0.00 0.00 0.00 0.00 0.00 0.00 0.01 0.00 0.01 0.07 0.09 0.14 0.26 0.25 0.23 0.17 0.11 0.09
0.31 0.28 0.12 0.06 0.05 0.07 0.08 0.02 0.00 0.00 0.00 0.00 0.00 0.00 0.00 0.00 0.00 0.00 0.00 0.01 0.01 0.03 0.06 0.08 0.11 0.07 0.04 0.04 0.01 0.00 0.00 0.00 0.00 0.00 0.00 0.00 0.00 0.00 0.00 0.00 0.00 0.00 0.00 0.00 0.00 0.01 0.01 0.00 0.00 0.00 0.02 0.09 0.15 0.14
0.49 0.16 0.04 0.05 0.05 0.04 0.04 0.01 0.00 0.00 0.00 0.00 0.00 0.00 0.00 0.00 0.00 0.00 0.00 0.00 0.01 0.06 0.20 0.29 0.21 0.08 0.05 0.04 0.00 0.00 0.00 0.00 0.00 0.00 0.00 0.00 0.00 0.00 0.00 0.00 0.00 0.00 0.00 0.00 0.00 0.00 0.00 0.00 0.00 0.00 0.00 0.01 0.03 0.08
0.21 0.02 0.07 0.10 0.05 0.03 0.03 0.00 0.00 0.00 0.00 0.00 0.00 0.00 0.00 0.00 0.00 0.00 0.00 0.00 0.01 0.08 0.25 0.51 0.29 0.17 0.03 0.01 0.00 0.00 0.00 0.00 0.00 0.00 0.00 0.00 0.00 0.00 0.00 0.00 0.00 0.00 0.00 0.00 0.00 0.00 0.00 0.00 0.00 0.00 0.00 0.00 0.00 0.00
0.06 0.10 0.19 0.13 0.10 0.08 0.06 0.02 0.00 0.00 0.00 0.00 0.00 0.00 0.00 0.00 0.01 0.01 0.01 0.00 0.01 0.04 0.13 0.29 0.28 0.09 0.00 0.00 0.00 0.00 0.00 0.00 0.00 0.00 0.00 0.00 0.00 0.00 0.00 0.00 0.00 0.00 0.00 0.00 0.00 0.00 0.00 0.00 0.00 0.00 0.00 0.00 0.00 0.00
0.28 0.42 0.40 0.29 0.14 0.12 0.06 0.01 0.00 0.00 0.00 0.00 0.00 0.00 0.00 0.01 0.01 0.01 0.01 0.01 0.02 0.06 0.11 0.12 0.05 0.02 0.02 0.04 0.06 0.04 0.01 0.00 0.00 0.00 0.00 0.00 0.00 0.00 0.00 0.00 0.00 0.00 0.00 0.00 0.00 0.00 0.00 0.00 0.00 0.00 0.00 0.00 0.00 0.00
0.53 0.62 0.49 0.25 0.17 0.09 0.05 0.00 0.00 0.00 0.00 0.00 0.00 0.00 0.00 0.00 0.00 0.00 0.02 0.03 0.05 0.05 0.04 0.02 0.02 0.02 0.04 0.05 0.06 0.05 0.02 0.01 0.00 0.00 0.00 0.00 0.00 0.00 0.00 0.00 0.00 0.00 0.00 0.00 0.00 0.00 0.00 0.00 0.00 0.00 0.00 0.00 0.00 0.00
0.22 0.31 0.29 0.34 0.18 0.10 0.05 0.00 0.00 0.00 0.01 0.00 0.00 0.01 0.00 0.00 0.00 0.01 0.01 0.02 0.01 0.01 0.01 0.02 0.03 0.05 0.05 0.06 0.07 0.07 0.05 0.02 0.01 0.01 0.00 0.00 0.00 0.00 0.00 0.00 0.00 0.00 0.00 0.00 0.00 0.00 0.00 0.00 0.00 0.00 0.00 0.00 0.00 0.00
0.28 0.35 0.37 0.30 0.18 0.11 0.05 0.01 0.00 0.00 0.00 0.00 0.00 0.00 0.00 0.00 0.00 0.01 0.01 0.00 0.00 0.00 0.00 0.02 0.04 0.07 0.10 0.10 0.14 0.12 0.11 0.08 0.04 0.02 0.01 0.01 0.00 0.00 0.00 0.00 0.00 0.00 0.00 0.00 0.00 0.00 0.00 0.00 0.00 0.00 0.00 0.00 0.00 0.00
0.25 0.35 0.35 0.25 0.14 0.07 0.03 0.01 0.01 0.01 0.01 0.00 0.00 0.00 0.00 0.00 0.01 0.01 0.00 0.00 0.00 0.00 0.00 0.01 0.02 0.03 0.04 0.06 0.09 0.16 0.22 0.21 0.15 0.10 0.06 0.04 0.02 0.01 0.01 0.01 0.00 0.00 0.00 0.00 0.00 0.00 0.00 0.00 0.00 0.00 0.00 0.00 0.00 0.00
0.57 0.43 0.25 0.17 0.06 0.02 0.01 0.01 0.01 0.00 0.00 0.00 0.01 0.00 0.00 0.01 0.00 0.00 0.00 0.00 0.00 0.00 0.00 0.00 0.01 0.03 0.03 0.03 0.05 0.07 0.10 0.17 0.19 0.18 0.18 0.18 0.11 0.08 0.05 0.03 0.02 0.01 0.00 0.00 0.00 0.00 0.00 0.00 0.00 0.00 0.00 0.00 0.00 0.00
0.47 0.19 0.06 0.01 0.01 0.00 0.00 0.00 0.00 0.00 0.00 0.00 0.01 0.00 0.00 0.00 0.00 0.00 0.00 0.00 0.00 0.00 0.00 0.00 0.00 0.01 0.02 0.03 0.03 0.06 0.08 0.12 0.14 0.11 0.10 0.19 0.20 0.19 0.16 0.12 0.08 0.04 0.02 0.03 0.03 0.02 0.01 0.01 0.00 0.00 0.00 0.00 0.01 0.02
0.21 0.14 0.06 0.01 0.00 0.00 0.00 0.00 0.00 0.00 0.00 0.00 0.00 0.00 0.00 0.00 0.00 0.00 0.00 0.00 0.00 0.00 0.00 0.00 0.00 0.00 0.00 0.01 0.03 0.04 0.07 0.11 0.13 0.09 0.10 0.13 0.14 0.14 0.15 0.14 0.12 0.09 0.09 0.11 0.10 0.09 0.05 0.03 0.03 0.03 0.04 0.04 0.04 0.03
0.05 0.00 0.01 0.01 0.00 0.00 0.00 0.00 0.00 0.00 0.00 0.00 0.00 0.00 0.00 0.00 0.00 0.00 0.00 0.00 0.00 0.00 0.00 0.00 0.00 0.00 0.00 0.01 0.02 0.04 0.06 0.09 0.12 0.11 0.12 0.14 0.13 0.13 0.14 0.16 0.22 0.27 0.27 0.20 0.15 0.16 0.16 0.14 0.10 0.10 0.11 0.10 0.08 0.07
0.01 0.00 0.00 0.00 0.00 0.00 0.00 0.00 0.00 0.00 0.00 0.00 0.00 0.00 0.00 0.00 0.00 0.00 0.00 0.00 0.00 0.00 0.00 0.00 0.00 0.00 0.00 0.01 0.03 0.04 0.06 0.09 0.12 0.10 0.08 0.09 0.13 0.16 0.20 0.26 0.35 0.41 0.41 0.36 0.32 0.24 0.23 0.23 0.23 0.23 0.22 0.20 0.18 0.17
0.00 0.00 0.00 0.00 0.00 0.00 0.00 0.00 0.00 0.00 0.00 0.00 0.00 0.00 0.00 0.00 0.00 0.00 0.00 0.00 0.00 0.00 0.00 0.00 0.00 0.01 0.01 0.02 0.04 0.04 0.05 0.06 0.09 0.09 0.09 0.09 0.12 0.17 0.23 0.28 0.36 0.45 0.45 0.41 0.49 0.56 0.52 0.52 0.54 0.51 0.46 0.40 0.34 0.29
0.00 0.00 0.00 0.00 0.00 0.00 0.00 0.00 0.00 0.00 0.00 0.00 0.00 0.00 0.00 0.00 0.00 0.00 0.00 0.00 0.00 0.00 0.00 0.00 0.01 0.01 0.02 0.04 0.06 0.08 0.08 0.09 0.11 0.12 0.14 0.17 0.19 0.21 0.27 0.34 0.37 0.42 0.47 0.47 0.43 0.41 0.39 0.33 0.29 0.28 0.29 0.29 0.27 0.23
0.01 0.01 0.00 0.00 0.00 0.00 0.00 0.00 0.00 0.00 0.00 0.00 0.00 0.00 0.00 0.00 0.00 0.00 0.00 0.00 0.00 0.01 0.01 0.02 0.03 0.04 0.06 0.08 0.11 0.14 0.17 0.17 0.16 0.17 0.19 0.20 0.22 0.25 0.29 0.35 0.41 0.44 0.47 0.46 0.42 0.39 0.34 0.35 0.36 0.36 0.37 0.38 0.35 0.30
0.02 0.01 0.00 0.00 0.00 0.00 0.00 0.00 0.00 0.00 0.00 0.00 0.00 0.00 0.00 0.00 0.00 0.00 0.00 0.00 0.01 0.02 0.03 0.05 0.07 0.10 0.13 0.15 0.18 0.21 0.24 0.28 0.29 0.32 0.35 0.35 0.32 0.35 0.40 0.42 0.43 0.42 0.40 0.41 0.44 0.46 0.46 0.43 0.40 0.38 0.36 0.34 0.34 0.32

GFSWCAN_prec_precacc_030.txt.gz
Total_Precipitation_Accumulation
0.00 0.01 0.01 0.02 0.02 0.05 0.06 0.05 0.06 0.06 0.05 0.06 0.07 0.07 0.12 0.06 0.02 0.02 0.05 0.09 0.22 0.12 0.02 0.00 0.00 0.01 0.01 0.02 0.03 0.01 0.01 0.01 0.05 0.09 0.10 0.05 0.02 0.01 0.00 0.00 0.00 0.01 0.03 0.05 0.05 0.05 0.00 0.00 0.00 0.00 0.00 0.00 0.00 0.00
0.02 0.02 0.04 0.04 0.06 0.09 0.08 0.06 0.04 0.04 0.05 0.06 0.06 0.08 0.18 0.09 0.04 0.04 0.03 0.08 0.15 0.14 0.04 0.00 0.00 0.00 0.00 0.01 0.01 0.00 0.03 0.01 0.03 0.10 0.14 0.09 0.03 0.01 0.00 0.00 0.00 0.00 0.00 0.00 0.00 0.00 0.00 0.00 0.00 0.00 0.00 0.00 0.00 0.01
0.05 0.07 0.08 0.10 0.12 0.11 0.10 0.07 0.07 0.07 0.07 0.05 0.06 0.09 0.13 0.13 0.11 0.07 0.04 0.03 0.09 0.11 0.02 0.00 0.01 0.00 0.00 0.00 0.01 0.01 0.02 0.01 0.04 0.12 0.26 0.10 0.04 0.04 0.02 0.01 0.00 0.00 0.00 0.00 0.00 0.00 0.00 0.00 0.00 0.00 0.00 0.00 0.00 0.02
0.12 0.14 0.15 0.16 0.17 0.13 0.12 0.11 0.09 0.09 0.09 0.09 0.07 0.08 0.09 0.12 0.15 0.10 0.04 0.03 0.08 0.10 0.09 0.02 0.00 0.00 0.00 0.00 0.01 0.02 0.04 0.02 0.08 0.16 0.18 0.13 0.03 0.02 0.02 0.01 0.00 0.01 0.00 0.00 0.00 0.00 0.00 0.00 0.00 0.00 0.00 0.00 0.00 0.00
0.14 0.13 0.14 0.19 0.17 0.13 0.12 0.10 0.10 0.12 0.13 0.10 0.08 0.07 0.10 0.13 0.09 0.06 0.01 0.02 0.05 0.14 0.18 0.05 0.05 0.00 0.00 0.01 0.04 0.04 0.08 0.15 0.15 0.27 0.24 0.07 0.03 0.02 0.00 0.00 0.00 0.00 0.00 0.00 0.00 0.00 0.00 0.00 0.00 0.00 0.00 0.00 0.00 0.00
0.13 0.13 0.15 0.15 0.14 0.15 0.16 0.18 0.16 0.16 0.15 0.14 0.09 0.12 0.11 0.07 0.10 0.07 0.07 0.23 0.16 0.15 0.35 0.18 0.23 0.03 0.03 0.05 0.14 0.15 0.17 0.30 0.40 0.30 0.26 0.18 0.04 0.04 0.04 0.02 0.00 0.00 0.00 0.00 0.00 0.00 0.00 0.00 0.00 0.00 0.00 0.00 0.00 0.00
0.15 0.14 0.14 0.17 0.22 0.26 0.27 0.22 0.17 0.16 0.16 0.11 0.11 0.09 0.03 0.03 0.06 0.04 0.13 0.56 0.28 0.21 0.32 0.39 0.57 0.15 0.13 0.21 0.20 0.41 0.29 0.47 0.49 0.45 0.28 0.16 0.12 0.25 0.13 0.01 0.00 0.00 0.00 0.00 0.00 0.00 0.00 0.00 0.00 0.00 0.00 0.00 0.00 0.00
0.23 0.20 0.22 0.25 0.28 0.26 0.19 0.15 0.14 0.14 0.12 0.09 0.05 0.01 0.01 0.06 0.03 0.03 0.02 0.10 0.27 0.61 0.59 0.88 0.87 0.44 0.49 0.55 0.43 0.55 0.56 0.65 0.73 0.59 0.27 0.26 0.12 0.10 0.05 0.00 0.00 0.00 0.00 0.00 0.00 0.00 0.00 0.00 0.00 0.00 0.00 0.00 0.00 0.00
0.21 0.19 0.16 0.16 0.20 0.21 0.17 0.15 0.13 0.12 0.08 0.03 0.00 0.01 0.12 0.07 0.04 0.03 0.05 0.13 0.43 0.88 0.77 0.68 0.65 0.60 0.67 0.62 0.61 0.53 0.81 0.71 0.64 0.47 0.18 0.22 0.20 0.04 0.00 0.01 0.00 0.00 0.00 0.00 0.00 0.00 0.00 0.00 0.00 0.00 0.00 0.00 0.00 0.00
0.20 0.14 0.10 0.13 0.17 0.16 0.15 0.12 0.11 0.09 0.02 0.00 0.00 0.02 0.10 0.01 0.00 0.06 0.27 0.64 0.76 0.68 0.46 0.49 0.57 0.63 0.81 0.57 0.47 0.49 0.57 0.46 0.57 0.30 0.16 0.15 0.05 0.00 0.00 0.00 0.00 0.00 0.00 0.00 0.00 0.00 0.00 0.00 0.00 0.00 0.00 0.00 0.00 0.00
0.15 0.08 0.04 0.08 0.14 0.13 0.10 0.09 0.08 0.02 0.00 0.00 0.00 0.01 0.02 0.00 0.15 0.47 0.74 0.70 0.50 0.31 0.27 0.35 0.49 0.44 0.36 0.36 0.30 0.37 0.42 0.25 0.25 0.21 0.15 0.04 0.01 0.00 0.00 0.00 0.00 0.00 0.00 0.00 0.00 0.00 0.00 0.00 0.00 0.00 0.00 0.01 0.04 0.03
0.15 0.08 0.05 0.07 0.10 0.11 0.08 0.06 0.03 0.00 0.00 0.01 0.02 0.01 0.02 0.13 0.38 0.49 0.59 0.43 0.17 0.10 0.18 0.36 0.36 0.33 0.23 0.15 0.16 0.15 0.10 0.09 0.07 0.03 0.02 0.01 0.00 0.00 0.00 0.00 0.00 0.00 0.00 0.00 0.00 0.00 0.00 0.00 0.00 0.00 0.00 0.00 0.01 0.08
0.18 0.12 0.08 0.08 0.10 0.08 0.05 0.02 0.01 0.00 0.01 0.01 0.01 0.01 0.06 0.14 0.27 0.32 0.33 0.26 0.06 0.07 0.10 0.11 0.21 0.20 0.21 0.14 0.08 0.08 0.01 0.00 0.00 0.00 0.00 0.00 0.00 0.00 0.00 0.00 0.00 0.00 0.00 0.00 0.00 0.01 0.01 0.01 0.02 0.02 0.02 0.01 0.00 0.01
0.21 0.16 0.13 0.14 0.12 0.07 0.05 0.02 0.01 0.00 0.01 0.00 0.00 0.00 0.06 0.09 0.14 0.14 0.12 0.11 0.05 0.04 0.03 0.04 0.10 0.14 0.22 0.12 0.07 0.01 0.01 0.00 0.00 0.00 0.00 0.00 0.00 0.00 0.00 0.00 0.00 0.00 0.00 0.02 0.07 0.16 0.18 0.21 0.22 0.26 0.26 0.24 0.18 0.11
0.23 0.15 0.14 0.14 0.13 0.09 0.08 0.04 0.01 0.01 0.00 0.00 0.00 0.00 0.01 0.02 0.02 0.01 0.02 0.04 0.03 0.04 0.05 0.02 0.04 0.04 0.10 0.11 0.05 0.03 0.01 0.00 0.00 0.00 0.00 0.00 0.00 0.00 0.00 0.00 0.00 0.00 0.01 0.00 0.01 0.07 0.09 0.14 0.27 0.29 0.28 0.23 0.15 0.11
0.31 0.29 0.13 0.06 0.07 0.08 0.08 0.02 0.00 0.00 0.00 0.00 0.00 0.00 0.00 0.00 0.00 0.00 0.00 0.01 0.01 0.03 0.06 0.08 0.11 0.08 0.06 0.08 0.03 0.00 0.00 0.00 0.00 0.00 0.00 0.00 0.00 0.00 0.00 0.00 0.00 0.00 0.00 0.00 0.00 0.01 0.01 0.00 0.00 0.00 0.02 0.09 0.15 0.14
0.49 0.16 0.04 0.06 0.07 0.05 0.04 0.01 0.00 0.00 0.00 0.00 0.00 0.00 0.00 0.00 0.00 0.00 0.00 0.00 0.01 0.06 0.20 0.30 0.24 0.09 0.07 0.07 0.01 0.00 0.00 0.00 0.00 0.00 0.00 0.00 0.00 0.00 0.00 0.00 0.00 0.00 0.00 0.00 0.00 0.00 0.00 0.00 0.00 0.00 0.00 0.01 0.03 0.08
0.21 0.02 0.07 0.11 0.06 0.03 0.03 0.00 0.00 0.00 0.00 0.00 0.00 0.00 0.00 0.00 0.00 0.00 0.00 0.00 0.01 0.08 0.26 0.52 0.30 0.18 0.05 0.02 0.00 0.00 0.00 0.00 0.00 0.00 0.00 0.00 0.00 0.00 0.00 0.00 0.00 0.00 0.00 0.00 0.00 0.00 0.00 0.00 0.00 0.00 0.00 0.00 0.00 0.00
0.06 0.10 0.20 0.13 0.11 0.10 0.08 0.03 0.00 0.00 0.00 0.00 0.00 0.00 0.00 0.00 0.01 0.01 0.01 0.00 0.01 0.04 0.14 0.29 0.28 0.09 0.00 0.00 0.00 0.00 0.00 0.00 0.00 0.00 0.00 0.00 0.00 0.00 0.00 0.00 0.00 0.00 0.00 0.00 0.00 0.00 0.00 0.00 0.00 0.00 0.00 0.00 0.00 0.00
0.28 0.43 0.41 0.29 0.15 0.14 0.12 0.04 0.01 0.00 0.00 0.00 0.00 0.00 0.00 0.01 0.01 0.01 0.01 0.01 0.02 0.07 0.12 0.12 0.05 0.02 0.02 0.04 0.06 0.04 0.01 0.00 0.00 0.00 0.00 0.00 0.00 0.00 0.00 0.00 0.00 0.00 0.00 0.00 0.00 0.00 0.00 0.00 0.00 0.00 0.00 0.00 0.00 0.00
0.53 0.66 0.51 0.26 0.18 0.11 0.09 0.01 0.00 0.00 0.00 0.00 0.00 0.00 0.00 0.00 0.00 0.00 0.02 0.03 0.05 0.05 0.04 0.02 0.02 0.02 0.04 0.05 0.06 0.05 0.03 0.01 0.00 0.00 0.00 0.00 0.00 0.00 0.00 0.00 0.00 0.00 0.00 0.00 0.00 0.00 0.00 0.00 0.00 0.00 0.00 0.00 0.00 0.00
0.22 0.31 0.29 0.35 0.21 0.16 0.07 0.01 0.00 0.00 0.01 0.00 0.00 0.01 0.00 0.00 0.00 0.01 0.01 0.03 0.02 0.01 0.01 0.02 0.03 0.05 0.05 0.06 0.07 0.07 0.05 0.02 0.01 0.01 0.00 0.00 0.00 0.00 0.00 0.00 0.00 0.00 0.00 0.00 0.00 0.00 0.00 0.00 0.00 0.00 0.00 0.00 0.00 0.00
0.28 0.35 0.37 0.31 0.21 0.14 0.05 0.01 0.01 0.01 0.00 0.00 0.00 0.00 0.00 0.00 0.00 0.01 0.01 0.00 0.00 0.00 0.00 0.02 0.04 0.07 0.10 0.10 0.14 0.12 0.11 0.08 0.04 0.02 0.01 0.01 0.00 0.00 0.00 0.00 0.00 0.00 0.00 0.00 0.00 0.00 0.00 0.00 0.00 0.00 0.00 0.00 0.00 0.00
0.26 0.37 0.38 0.28 0.16 0.07 0.03 0.02 0.02 0.01 0.01 0.00 0.00 0.00 0.00 0.00 0.01 0.01 0.00 0.00 0.00 0.00 0.00 0.01 0.02 0.03 0.04 0.06 0.09 0.16 0.22 0.21 0.15 0.10 0.06 0.04 0.02 0.01 0.01 0.01 0.00 0.00 0.00 0.00 0.00 0.00 0.00 0.00 0.00 0.00 0.00 0.00 0.00 0.00
0.70 0.58 0.30 0.19 0.07 0.04 0.02 0.02 0.01 0.01 0.00 0.00 0.01 0.00 0.00 0.01 0.00 0.00 0.00 0.00 0.00 0.00 0.00 0.00 0.01 0.03 0.03 0.03 0.05 0.07 0.10 0.17 0.19 0.18 0.18 0.18 0.11 0.08 0.05 0.03 0.02 0.01 0.00 0.00 0.00 0.00 0.00 0.00 0.00 0.00 0.00 0.00 0.00 0.00
0.59 0.22 0.07 0.01 0.02 0.01 0.00 0.00 0.00 0.00 0.00 0.00 0.01 0.00 0.00 0.00 0.00 0.00 0.00 0.00 0.00 0.00 0.00 0.00 0.00 0.01 0.02 0.03 0.03 0.06 0.08 0.12 0.14 0.11 0.10 0.19 0.20 0.19 0.16 0.12 0.08 0.04 0.02 0.03 0.03 0.02 0.01 0.01 0.00 0.00 0.00 0.00 0.01 0.02
0.25 0.14 0.07 0.01 0.01 0.01 0.00 0.00 0.00 0.00 0.00 0.00 0.00 0.00 0.00 0.00 0.00 0.00 0.00 0.00 0.00 0.00 0.00 0.00 0.00 0.00 0.00 0.01 0.03 0.04 0.07 0.11 0.13 0.09 0.10 0.13 0.14 0.14 0.15 0.14 0.12 0.09 0.09 0.11 0.10 0.09 0.05 0.03 0.03 0.03 0.04 0.04 0.04 0.03
0.05 0.00 0.01 0.01 0.00 0.00 0.01 0.01 0.00 0.00 0.00 0.00 0.00 0.00 0.00 0.00 0.00 0.00 0.00 0.00 0.00 0.00 0.00 0.00 0.00 0.00 0.00 0.01 0.02 0.04 0.06 0.09 0.12 0.11 0.12 0.14 0.13 0.13 0.14 0.16 0.22 0.27 0.27 0.20 0.15 0.16 0.16 0.14 0.10 0.10 0.11 0.10 0.08 0.07
0.02 0.00 0.00 0.00 0.00 0.00 0.01 0.01 0.01 0.00 0.00 0.00 0.00 0.00 0.00 0.00 0.00 0.00 0.00 0.00 0.00 0.00 0.00 0.00 0.00 0.00 0.00 0.01 0.03 0.04 0.06 0.09 0.12 0.10 0.08 0.09 0.13 0.16 0.20 0.26 0.35 0.41 0.41 0.36 0.32 0.24 0.23 0.23 0.24 0.24 0.23 0.21 0.18 0.18
0.01 0.00 0.00 0.00 0.00 0.00 0.00 0.00 0.00 0.00 0.00 0.00 0.00 0.00 0.00 0.00 0.00 0.00 0.00 0.00 0.00 0.00 0.00 0.00 0.00 0.01 0.01 0.02 0.04 0.04 0.05 0.06 0.09 0.09 0.09 0.09 0.12 0.17 0.23 0.28 0.36 0.45 0.45 0.41 0.49 0.56 0.52 0.52 0.54 0.52 0.46 0.40 0.34 0.30
0.00 0.00 0.00 0.00 0.00 0.00 0.00 0.00 0.00 0.00 0.00 0.00 0.00 0.00 0.00 0.00 0.00 0.00 0.00 0.00 0.00 0.00 0.00 0.00 0.01 0.01 0.02 0.04 0.06 0.08 0.08 0.09 0.11 0.12 0.14 0.17 0.19 0.21 0.27 0.34 0.37 0.42 0.47 0.47 0.43 0.41 0.39 0.33 0.29 0.28 0.29 0.30 0.27 0.23
0.01 0.01 0.00 0.00 0.00 0.00 0.00 0.00 0.00 0.00 0.00 0.00 0.00 0.00 0.00 0.00 0.00 0.00 0.00 0.00 0.00 0.01 0.01 0.02 0.03 0.04 0.06 0.08 0.11 0.14 0.17 0.17 0.16 0.17 0.19 0.20 0.22 0.25 0.29 0.35 0.41 0.44 0.47 0.47 0.42 0.39 0.35 0.36 0.37 0.36 0.38 0.38 0.36 0.30
0.03 0.01 0.00 0.00 0.00 0.00 0.00 0.00 0.00 0.00 0.00 0.00 0.00 0.00 0.00 0.00 0.00 0.00 0.00 0.00 0.01 0.02 0.03 0.05 0.07 0.10 0.13 0.15 0.18 0.21 0.24 0.28 0.29 0.32 0.36 0.35 0.32 0.35 0.41 0.43 0.43 0.42 0.40 0.41 0.45 0.47 0.46 0.43 0.40 0.38 0.36 0.34 0.34 0.32

GFSWCAN_prec_precacc_033.txt.gz
Total_Precipitation_Accumulation
0.00 0.01 0.01 0.02 0.02 0.05 0.06 0.06 0.06 0.06 0.05 0.07 0.07 0.07 0.12 0.07 0.02 0.02 0.05 0.09 0.22 0.12 0.02 0.00 0.00 0.01 0.01 0.02 0.03 0.01 0.01 0.02 0.05 0.11 0.11 0.05 0.02 0.01 0.00 0.00 0.00 0.01 0.03 0.05 0.06 0.06 0.00 0.00 0.00 0.00 0.00 0.00 0.00 0.00
0.02 0.03 0.04 0.04 0.06 0.09 0.09 0.07 0.04 0.04 0.05 0.07 0.07 0.08 0.18 0.10 0.06 0.05 0.03 0.08 0.15 0.14 0.04 0.00 0.00 0.00 0.00 0.01 0.01 0.00 0.03 0.01 0.03 0.11 0.15 0.09 0.04 0.01 0.00 0.00 0.00 0.00 0.00 0.00 0.00 0.00 0.00 0.00 0.00 0.00 0.00 0.00 0.00 0.01
0.05 0.07 0.08 0.10 0.12 0.11 0.11 0.08 0.07 0.07 0.07 0.06 0.07 0.09 0.13 0.13 0.13 0.17 0.08 0.03 0.09 0.12 0.02 0.00 0.01 0.00 0.00 0.00 0.01 0.01 0.02 0.01 0.04 0.12 0.26 0.10 0.05 0.04 0.02 0.01 0.00 0.00 0.00 0.00 0.00 0.00 0.00 0.00 0.00 0.00 0.00 0.00 0.00 0.02
0.12 0.14 0.15 0.16 0.17 0.13 0.12 0.11 0.09 0.09 0.09 0.10 0.08 0.08 0.09 0.12 0.19 0.16 0.05 0.04 0.09 0.11 0.10 0.02 0.00 0.00 0.00 0.00 0.01 0.02 0.04 0.02 0.08 0.16 0.18 0.13 0.04 0.03 0.02 0.01 0.00 0.01 0.00 0.00 0.00 0.00 0.00 0.00 0.00 0.00 0.00 0.00 0.00 0.00
0.14 0.13 0.14 0.19 0.17 0.13 0.12 0.11 0.10 0.12 0.13 0.10 0.09 0.08 0.11 0.15 0.10 0.06 0.01 0.03 0.07 0.16 0.20 0.05 0.05 0.00 0.00 0.01 0.04 0.04 0.08 0.15 0.15 0.27 0.31 0.14 0.05 0.03 0.01 0.00 0.00 0.00 0.00 0.00 0.00 0.00 0.00 0.00 0.00 0.00 0.00 0.00 0.00 0.00
0.13 0.13 0.15 0.15 0.14 0.15 0.16 0.19 0.17 0.16 0.15 0.14 0.09 0.12 0.13 0.07 0.10 0.07 0.07 0.23 0.16 0.16 0.36 0.18 0.23 0.03 0.03 0.05 0.14 0.15 0.17 0.30 0.40 0.30 0.28 0.28 0.12 0.07 0.06 0.02 0.00 0.00 0.00 0.00 0.00 0.00 0.00 0.00 0.00 0.00 0.00 0.00 0.00 0.00
0.15 0.14 0.15 0.18 0.22 0.27 0.28 0.23 0.17 0.16 0.16 0.12 0.12 0.10 0.03 0.03 0.07 0.04 0.13 0.56 0.28 0.21 0.34 0.40 0.57 0.15 0.13 0.21 0.20 0.41 0.29 0.47 0.49 0.45 0.29 0.20 0.22 0.40 0.17 0.02 0.00 0.00 0.00 0.00 0.00 0.00 0.00 0.00 0.00 0.00 0.00 0.00 0.00 0.00
0.24 0.21 0.23 0.26 0.28 0.26 0.19 0.15 0.14 0.14 0.12 0.09 0.06 0.01 0.01 0.06 0.03 0.03 0.02 0.10 0.27 0.64 0.60 0.89 0.88 0.44 0.49 0.56 0.43 0.55 0.56 0.65 0.73 0.60 0.27 0.28 0.26 0.31 0.13 0.00 0.00 0.00 0.00 0.00 0.00 0.00 0.00 0.00 0.00 0.00 0.00 0.00 0.00 0.00
0.21 0.20 0.16 0.17 0.20 0.21 0.17 0.15 0.13 0.12 0.08 0.03 0.00 0.01 0.13 0.08 0.04 0.03 0.05 0.14 0.45 0.90 0.78 0.69 0.66 0.61 0.68 0.65 0.62 0.53 0.81 0.72 0.65 0.48 0.19 0.26 0.32 0.24 0.03 0.01 0.00 0.00 0.00 0.00 0.00 0.00 0.00 0.00 0.00 0.00 0.00 0.00 0.00 0.00
0.20 0.14 0.10 0.13 0.17 0.16 0.15 0.12 0.11 0.09 0.02 0.00 0.00 0.02 0.10 0.01 0.00 0.06 0.27 0.66 0.78 0.71 0.49 0.52 0.59 0.65 0.85 0.63 0.52 0.54 0.59 0.48 0.57 0.31 0.19 0.20 0.14 0.05 0.02 0.00 0.00 0.00 0.00 0.00 0.00 0.00 0.00 0.00 0.00 0.00 0.00 0.00 0.00 0.00
0.15 0.08 0.05 0.08 0.14 0.13 0.10 0.09 0.08 0.02 0.00 0.00 0.00 0.01 0.02 0.00 0.15 0.47 0.74 0.72 0.52 0.34 0.29 0.36 0.51 0.47 0.40 0.47 0.42 0.50 0.63 0.30 0.35 0.36 0.21 0.11 0.02 0.00 0.01 0.00 0.00 0.00 0.00 0.00 0.00 0.00 0.00 0.00 0.00 0.00 0.00 0.01 0.04 0.03
0.15 0.08 0.06 0.07 0.10 0.11 0.08 0.06 0.03 0.00 0.00 0.01 0.02 0.01 0.02 0.13 0.38 0.49 0.60 0.45 0.19 0.13 0.20 0.38 0.37 0.35 0.26 0.24 0.25 0.24 0.27 0.18 0.21 0.22 0.15 0.04 0.00 0.00 0.00 0.00 0.00 0.00 0.00 0.00 0.00 0.00 0.00 0.00 0.00 0.00 0.00 0.00 0.01 0.08
0.18 0.13 0.09 0.09 0.10 0.08 0.05 0.02 0.01 0.00 0.01 0.01 0.01 0.01 0.06 0.14 0.27 0.32 0.34 0.27 0.07 0.07 0.10 0.11 0.21 0.21 0.24 0.22 0.12 0.10 0.02 0.01 0.01 0.02 0.01 0.00 0.00 0.00 0.00 0.00 0.00 0.00 0.00 0.00 0.00 0.01 0.01 0.01 0.02 0.03 0.02 0.01 0.00 0.01
0.21 0.16 0.14 0.15 0.13 0.07 0.05 0.02 0.01 0.00 0.01 0.00 0.00 0.00 0.06 0.09 0.14 0.14 0.12 0.11 0.05 0.04 0.03 0.04 0.10 0.14 0.24 0.17 0.12 0.04 0.01 0.00 0.01 0.00 0.00 0.00 0.00 0.00 0.00 0.00 0.00 0.00 0.00 0.02 0.07 0.16 0.18 0.21 0.23 0.28 0.34 0.35 0.29 0.20
0.23 0.16 0.15 0.14 0.13 0.09 0.08 0.04 0.01 0.01 0.00 0.00 0.00 0.00 0.01 0.02 0.02 0.01 0.02 0.04 0.03 0.04 0.05 0.02 0.05 0.04 0.12 0.14 0.08 0.04 0.02 0.01 0.00 0.00 0.00 0.00 0.00 0.00 0.00 0.00 0.00 0.00 0.01 0.00 0.01 0.07 0.09 0.14 0.27 0.29 0.28 0.25 0.20 0.19
0.31 0.29 0.13 0.06 0.07 0.09 0.08 0.02 0.00 0.00 0.00 0.00 0.00 0.00 0.00 0.00 0.00 0.00 0.00 0.01 0.01 0.03 0.06 0.08 0.12 0.09 0.07 0.12 0.07 0.01 0.00 0.00 0.00 0.00 0.00 0.00 0.00 0.00 0.00 0.00 0.00 0.00 0.00 0.00 0.00 0.01 0.01 0.00 0.00 0.00 0.02 0.09 0.15 0.14
0.49 0.16 0.04 0.06 0.07 0.05 0.04 0.01 0.00 0.00 0.00 0.00 0.00 0.00 0.00 0.00 0.00 0.00 0.00 0.00 0.01 0.06 0.20 0.30 0.25 0.10 0.08 0.09 0.02 0.00 0.00 0.00 0.00 0.00 0.00 0.00 0.00 0.00 0.00 0.00 0.00 0.00 0.00 0.00 0.00 0.00 0.00 0.00 0.00 0.00 0.00 0.01 0.03 0.08
0.21 0.02 0.08 0.11 0.06 0.03 0.03 0.00 0.00 0.00 0.00 0.00 0.00 0.00 0.00 0.00 0.00 0.00 0.00 0.00 0.01 0.08 0.26 0.52 0.31 0.18 0.05 0.03 0.00 0.00 0.00 0.01 0.01 0.00 0.00 0.00 0.00 0.00 0.00 0.00 0.00 0.00 0.00 0.00 0.00 0.00 0.00 0.00 0.00 0.00 0.00 0.00 0.00 0.00
0.06 0.10 0.20 0.13 0.11 0.10 0.08 0.04 0.00 0.00 0.00 0.00 0.00 0.00 0.00 0.00 0.01 0.01 0.01 0.00 0.01 0.04 0.14 0.30 0.29 0.09 0.00 0.00 0.00 0.00 0.00 0.00 0.00 0.00 0.00 0.00 0.00 0.00 0.00 0.00 0.00 0.00 0.00 0.00 0.00 0.00 0.00 0.00 0.00 0.00 0.00 0.00 0.00 0.00
0.28 0.44 0.42 0.29 0.15 0.15 0.12 0.04 0.01 0.00 0.00 0.00 0.00 0.00 0.00 0.01 0.01 0.01 0.01 0.01 0.02 0.08 0.12 0.12 0.05 0.02 0.02 0.04 0.06 0.04 0.01 0.00 0.00 0.00 0.00 0.00 0.00 0.00 0.00 0.00 0.00 0.00 0.00 0.00 0.00 0.00 0.00 0.00 0.00 0.00 0.00 0.00 0.00 0.00
0.54 0.68 0.53 0.27 0.19 0.12 0.10 0.01 0.00 0.00 0.00 0.00 0.00 0.00 0.00 0.00 0.00 0.00 0.02 0.03 0.06 0.05 0.04 0.02 0.02 0.02 0.04 0.05 0.06 0.05 0.03 0.02 0.01 0.00 0.00 0.00 0.00 0.00 0.00 0.00 0.00 0.00 0.00 0.00 0.00 0.00 0.00 0.00 0.00 0.00 0.00 0.00 0.00 0.00
0.22 0.31 0.30 0.38 0.25 0.19 0.11 0.01 0.00 0.00 0.01 0.00 0.00 0.01 0.00 0.00 0.00 0.01 0.01 0.03 0.02 0.01 0.01 0.02 0.03 0.05 0.05 0.06 0.07 0.07 0.05 0.02 0.01 0.01 0.00 0.00 0.00 0.00 0.00 0.00 0.00 0.00 0.00 0.00 0.00 0.00 0.00 0.00 0.00 0.00 0.00 0.00 0.00 0.00
0.28 0.36 0.38 0.33 0.26 0.19 0.07 0.02 0.02 0.01 0.00 0.00 0.00 0.00 0.00 0.00 0.00 0.01 0.01 0.00 0.00 0.00 0.00 0.02 0.04 0.07 0.10 0.10 0.14 0.12 0.11 0.08 0.04 0.02 0.01 0.01 0.00 0.00 0.00 0.00 0.00 0.00 0.00 0.00 0.00 0.00 0.00 0.00 0.00 0.00 0.00 0.00 0.00 0.00
0.27 0.40 0.42 0.32 0.18 0.09 0.04 0.02 0.02 0.01 0.01 0.00 0.00 0.00 0.00 0.00 0.01 0.01 0.00 0.00 0.00 0.00 0.00 0.01 0.02 0.03 0.04 0.06 0.09 0.16 0.22 0.21 0.15 0.10 0.06 0.04 0.02 0.01 0.01 0.01 0.00 0.00 0.00 0.00 0.00 0.00 0.00 0.00 0.00 0.00 0.00 0.00 0.00 0.00
0.75 0.68 0.34 0.24 0.09 0.05 0.03 0.02 0.01 0.01 0.00 0.00 0.01 0.00 0.00 0.01 0.00 0.00 0.00 0.00 0.00 0.00 0.00 0.00 0.01 0.03 0.03 0.03 0.05 0.07 0.10 0.17 0.19 0.18 0.18 0.18 0.11 0.08 0.05 0.03 0.02 0.01 0.00 0.00 0.00 0.00 0.00 0.00 0.00 0.00 0.00 0.00 0.00 0.00
0.65 0.27 0.11 0.01 0.02 0.01 0.00 0.00 0.00 0.00 0.00 0.00 0.01 0.00 0.00 0.00 0.00 0.00 0.00 0.00 0.00 0.00 0.00 0.00 0.00 0.01 0.02 0.03 0.03 0.06 0.08 0.12 0.14 0.11 0.10 0.19 0.20 0.19 0.16 0.12 0.08 0.04 0.02 0.03 0.03 0.02 0.01 0.01 0.00 0.00 0.00 0.00 0.01 0.02
0.31 0.16 0.08 0.02 0.01 0.01 0.00 0.00 0.00 0.00 0.00 0.00 0.00 0.00 0.01 0.01 0.00 0.00 0.00 0.00 0.00 0.00 0.00 0.00 0.00 0.00 0.00 0.01 0.03 0.04 0.07 0.11 0.13 0.09 0.10 0.13 0.14 0.14 0.15 0.14 0.12 0.09 0.09 0.11 0.10 0.09 0.05 0.03 0.03 0.03 0.04 0.04 0.04 0.03
0.06 0.00 0.01 0.02 0.00 0.00 0.01 0.01 0.00 0.00 0.00 0.01 0.01 0.02 0.03 0.01 0.00 0.00 0.00 0.00 0.00 0.00 0.00 0.00 0.00 0.00 0.00 0.01 0.02 0.04 0.06 0.09 0.12 0.11 0.12 0.14 0.13 0.13 0.14 0.16 0.22 0.27 0.27 0.20 0.15 0.16 0.16 0.14 0.10 0.10 0.11 0.10 0.08 0.07
0.02 0.00 0.00 0.01 0.00 0.00 0.01 0.01 0.01 0.01 0.00 0.01 0.02 0.01 0.00 0.00 0.00 0.00 0.00 0.00 0.00 0.00 0.00 0.00 0.00 0.00 0.00 0.01 0.03 0.04 0.06 0.09 0.12 0.10 0.08 0.09 0.13 0.16 0.20 0.26 0.35 0.41 0.41 0.36 0.32 0.24 0.23 0.23 0.24 0.24 0.23 0.21 0.18 0.18
0.01 0.00 0.00 0.00 0.00 0.00 0.00 0.00 0.00 0.00 0.00 0.00 0.00 0.00 0.00 0.00 0.00 0.00 0.00 0.00 0.00 0.00 0.00 0.00 0.00 0.01 0.01 0.02 0.04 0.04 0.05 0.06 0.09 0.09 0.09 0.09 0.12 0.17 0.23 0.28 0.36 0.45 0.45 0.41 0.49 0.56 0.52 0.52 0.54 0.52 0.46 0.40 0.35 0.30
0.00 0.00 0.00 0.00 0.00 0.00 0.00 0.00 0.00 0.00 0.00 0.00 0.00 0.00 0.00 0.00 0.00 0.00 0.00 0.00 0.00 0.00 0.00 0.00 0.01 0.01 0.02 0.04 0.06 0.08 0.08 0.09 0.11 0.12 0.14 0.17 0.19 0.21 0.27 0.34 0.37 0.42 0.47 0.47 0.43 0.41 0.39 0.33 0.29 0.28 0.29 0.30 0.27 0.23
0.01 0.01 0.00 0.00 0.00 0.00 0.00 0.00 0.00 0.00 0.00 0.00 0.00 0.00 0.00 0.00 0.00 0.00 0.00 0.00 0.00 0.01 0.01 0.02 0.03 0.04 0.06 0.08 0.11 0.14 0.17 0.17 0.16 0.17 0.19 0.20 0.22 0.25 0.29 0.35 0.41 0.44 0.47 0.47 0.42 0.39 0.35 0.36 0.37 0.36 0.38 0.38 0.36 0.30
0.03 0.02 0.01 0.00 0.00 0.00 0.00 0.00 0.00 0.00 0.00 0.00 0.00 0.00 0.00 0.00 0.00 0.00 0.00 0.00 0.01 0.02 0.03 0.05 0.07 0.10 0.13 0.15 0.18 0.21 0.24 0.28 0.29 0.32 0.36 0.35 0.32 0.35 0.41 0.43 0.43 0.42 0.40 0.41 0.45 0.47 0.47 0.44 0.41 0.38 0.36 0.35 0.34 0.32